[[{"header":{"parameterUnit":"m.s-1","parameterCategory":1,"la1":30.2991,"la2":30.254,"lo1":-89.0895,"lo2":-89.0444,"dy":0.0017,"dx":0.0017,"nx":28,"ny":28,"refTime":"2023-09-22T21:00:00:Z","depth":0,"parameterNumber":2,"parameterNumberName":"U-component_of_WINDS"},"data":[0,0,0,0,0,0,0,0,0,0,0,0,0,0,0,0,0,0,0,0,0,0,0,0,0,0,0,0,0,0,0,0,0,0,0,0,0,0,0,0,0,0,0,0,0,0,0,0,0,0,0,0,0,0,0,0,0,0,-0.8468,-0.8466,0,-0.8355,-0.8354,-0.8352,-0.8268,-0.8268,-0.8267,-0.8266,-0.8149,-0.8146,-0.8144,0,0,0,0,0,0,0,0,0,0,0,0,0,-0.861,-0.8607,-0.8468,-0.8466,-0.8465,-0.8355,-0.8354,-0.8352,-0.8269,-0.8268,-0.8267,-0.8266,-0.8149,-0.8146,-0.8144,0,0,0,0,0,0,0,0,0,0,0,0,0,-0.8528,-0.8607,-0.8468,-0.841,-0.8404,-0.8356,-0.8354,-0.8352,-0.8269,-0.8268,-0.8266,-0.8265,-0.815,-0.8147,-0.8143,-0.8143,0,0,-0.8132,-0.813,0,0,0,0,0,0,0,0,-0.8532,-0.8522,-0.842,-0.8414,-0.8407,-0.8325,-0.836,-0.8282,-0.8269,-0.832,-0.8266,-0.8265,-0.8208,-0.8199,-0.8181,-0.8137,-0.8132,-0.8132,-0.8129,-0.8128,-0.8127,0,0,0,0,0,0,0,-0.8538,-0.8527,-0.8423,-0.8419,-0.8411,-0.8389,-0.8377,-0.8345,-0.8271,-0.8315,-0.8309,-0.8297,-0.8204,-0.8184,-0.8177,-0.813,-0.8132,-0.8128,-0.8126,-0.8125,-0.8082,-0.8083,0,0,0,0,0,0,-0.8553,-0.8532,-0.8427,-0.842,-0.8468,-0.8388,-0.8373,-0.8352,-0.8272,-0.8258,-0.8298,-0.8293,-0.8191,-0.8182,-0.8173,-0.8167,-0.8128,-0.8124,-0.8122,-0.8081,-0.8083,-0.8084,0,0,0,0,0,0,-0.8556,-0.8544,-0.8431,-0.8474,-0.8458,-0.8387,-0.8363,-0.835,-0.8331,-0.8258,-0.8245,-0.8292,-0.819,-0.8178,-0.8151,-0.8162,-0.8123,-0.8119,-0.808,-0.8082,-0.8083,-0.8157,0,0,0,0,0,0,-0.8561,-0.8546,-0.8545,-0.8475,-0.8456,-0.8412,-0.8364,-0.8349,-0.8325,-0.8318,-0.8249,-0.8236,-0.8188,-0.8157,-0.8148,-0.8156,-0.8117,-0.8079,-0.8081,-0.8083,-0.8153,-0.8161,-0.8167,0,0,0,0,0,-0.8566,-0.857,-0.8546,-0.8533,-0.8454,-0.8413,-0.8402,-0.8347,-0.8326,-0.8325,-0.8279,-0.8238,-0.8163,-0.8155,-0.8144,-0.8152,-0.8078,-0.808,-0.8082,-0.815,-0.8159,-0.8167,0,0,0,0,0,0,-0.8642,-0.8559,-0.8532,-0.8513,-0.8471,-0.8399,-0.8395,-0.8359,-0.8321,-0.8316,-0.8249,-0.8234,-0.8215,-0.818,-0.8173,-0.8148,-0.8115,-0.8116,-0.817,-0.8179,-0.8186,-0.8194,-0.8114,0,0,0,0,0,-0.8657,-0.8631,-0.856,-0.855,-0.853,-0.8467,-0.8447,-0.8409,-0.8362,-0.8343,-0.8295,-0.8251,-0.8217,-0.8196,-0.8161,-0.8148,-0.8132,-0.8148,-0.8155,-0.8162,-0.8162,-0.8154,-0.816,-0.8092,-0.8092,-0.8092,0,0,-0.8686,-0.8638,-0.8626,-0.8564,-0.8527,-0.8501,-0.8452,-0.8427,-0.8407,-0.8339,-0.8311,-0.8275,-0.8221,-0.8202,-0.8191,-0.8172,-0.8178,-0.8165,-0.817,-0.8167,-0.8157,-0.8163,-0.8169,-0.8093,-0.8093,-0.8093,0,0,-0.8727,-0.8688,-0.8676,-0.8641,-0.8585,-0.8543,-0.8541,-0.8475,-0.8448,-0.842,-0.8368,-0.8344,-0.8287,-0.8252,-0.8226,-0.8256,-0.8218,-0.8247,-0.8283,-0.8276,-0.8281,-0.8286,-0.8296,-0.8301,-0.8248,-0.8248,-0.8248,0,-0.8771,-0.8731,-0.8674,-0.8652,-0.8627,-0.8566,-0.8553,-0.8521,-0.8457,-0.8441,-0.8422,-0.8351,-0.831,-0.8282,-0.829,-0.8271,-0.8266,-0.8253,-0.8285,-0.8289,-0.8292,-0.8302,-0.8306,-0.8252,-0.8252,-0.8251,-0.8251,0,-0.8787,-0.876,-0.8757,-0.8698,-0.8672,-0.8655,-0.8596,-0.8577,-0.8542,-0.8503,-0.8475,-0.8424,-0.8379,-0.8369,-0.8334,-0.8337,-0.8327,-0.8298,-0.8264,-0.8304,-0.8312,-0.8315,-0.8257,-0.8256,-0.8255,-0.8254,0,0,-0.887,-0.8782,-0.8782,-0.8755,-0.8691,-0.8669,-0.865,-0.8606,-0.8591,-0.855,-0.8532,-0.8487,-0.846,-0.8431,-0.8391,-0.8385,-0.8413,-0.8356,-0.8354,-0.8368,-0.8413,-0.8435,-0.844,-0.8388,-0.8388,-0.8389,-0.8417,0,-0.8901,-0.8863,-0.8812,-0.8791,-0.8766,-0.8709,-0.8692,-0.8652,-0.8615,-0.8588,-0.8546,-0.8515,-0.8482,-0.8465,-0.8456,-0.8411,-0.8421,-0.8409,-0.837,-0.8369,-0.8384,-0.8444,-0.8466,-0.8495,-0.842,-0.842,-0.8421,0,-0.893,-0.8893,-0.887,-0.881,-0.8797,-0.8783,-0.874,-0.8715,-0.8668,-0.8642,-0.8611,-0.8569,-0.8546,-0.8517,-0.8484,-0.8477,-0.8459,-0.8435,-0.8435,-0.8428,-0.8397,-0.8438,-0.8503,-0.8508,-0.8425,-0.8425,-0.8424,0,-0.8993,-0.8938,-0.8917,-0.8896,-0.8825,-0.8816,-0.8786,-0.8738,-0.8716,-0.8678,-0.8663,-0.8623,-0.8601,-0.8571,-0.852,-0.8503,-0.8493,-0.8459,-0.847,-0.8472,-0.8469,-0.847,-0.8532,-0.8459,-0.8459,-0.8459,-0.8459,0,-0.9032,-0.902,-0.8944,-0.8932,-0.8917,-0.886,-0.8847,-0.8811,-0.877,-0.8749,-0.8697,-0.8679,-0.8613,-0.8587,-0.8547,-0.8526,-0.8517,-0.8495,-0.8484,-0.8499,-0.8501,-0.8485,-0.8481,-0.846,-0.846,-0.846,-0.8459,0,-0.9098,-0.9048,-0.9021,-0.8957,-0.8941,-0.8933,-0.8877,-0.8863,-0.8824,-0.8799,-0.8789,-0.8728,-0.8695,-0.8642,-0.8593,-0.8566,-0.8552,-0.8535,-0.8568,-0.8562,-0.8575,-0.8575,-0.8628,-0.8632,-0.8558,-0.8559,-0.856,0,-0.9126,-0.9115,-0.9051,-0.9034,-0.9006,-0.8979,-0.8956,-0.89,-0.8879,-0.8826,-0.8818,-0.8781,-0.8749,-0.8699,-0.865,-0.8612,-0.8593,-0.8615,-0.8587,-0.8603,-0.8593,-0.8594,-0.8593,-0.862,-0.8621,-0.8622,-0.8623,0,-0.918,-0.9156,-0.9125,-0.9087,-0.9062,-0.9028,-0.8992,-0.8981,-0.8917,-0.8896,-0.8862,-0.8837,-0.8789,-0.8753,-0.8709,-0.8678,-0.864,-0.8633,-0.8633,-0.8647,-0.8667,-0.8656,-0.8585,-0.8631,-0.863,-0.863,-0.8629,-0.8629,-0.9227,-0.9216,-0.9169,-0.9137,-0.9105,-0.9073,-0.9056,-0.9016,-0.8987,-0.8944,-0.8913,-0.8881,-0.8836,-0.8773,-0.8745,-0.8719,-0.8702,-0.8703,-0.8703,-0.8704,-0.8709,-0.8673,-0.8711,-0.8711,-0.871,-0.871,-0.871,0,-0.9278,-0.9246,-0.9217,-0.9169,-0.9145,-0.9113,-0.9072,-0.9053,-0.9027,-0.8988,-0.8958,-0.892,-0.8885,-0.8835,-0.8797,-0.8786,-0.8768,-0.8778,-0.8778,-0.8771,-0.8727,-0.873,-0.8794,-0.8794,-0.8794,-0.8794,-0.8794,-0.8794,-0.9301,-0.9281,-0.9252,-0.9215,-0.9182,-0.9151,-0.9131,-0.9101,-0.907,-0.903,-0.9002,-0.897,-0.8926,-0.8885,-0.8853,-0.8839,-0.8827,-0.8842,-0.8823,-0.8782,-0.8774,-0.8767,-0.8769,-0.8841,-0.8841,-0.8869,-0.887,-0.887]},{"header":{"parameterUnit":"m.s-1","parameterCategory":1,"la1":30.2991,"la2":30.254,"lo1":-89.0895,"lo2":-89.0444,"dy":0.0017,"dx":0.0017,"nx":28,"ny":28,"refTime":"2023-09-22T21:00:00:Z","depth":0,"parameterNumber":3,"parameterNumberName":"V-component_of_WINDS"},"data":[0,0,0,0,0,0,0,0,0,0,0,0,0,0,0,0,0,0,0,0,0,0,0,0,0,0,0,0,0,0,0,0,0,0,0,0,0,0,0,0,0,0,0,0,0,0,0,0,0,0,0,0,0,0,0,0,0,0,2.0886,2.0886,0,2.0903,2.0904,2.0904,2.0945,2.0946,2.0946,2.0947,2.0962,2.0962,2.0962,0,0,0,0,0,0,0,0,0,0,0,0,0,2.0884,2.0884,2.0886,2.0886,2.0887,2.0903,2.0904,2.0904,2.0945,2.0946,2.0947,2.0948,2.0963,2.0962,2.0962,0,0,0,0,0,0,0,0,0,0,0,0,0,2.0891,2.0884,2.0886,2.0909,2.0911,2.0903,2.0904,2.0904,2.0944,2.0946,2.0947,2.0948,2.0963,2.0962,2.0961,2.0932,0,0,2.096,2.0959,0,0,0,0,0,0,0,0,2.0891,2.0891,2.0905,2.0907,2.091,2.0923,2.0909,2.0913,2.0944,2.0932,2.0947,2.0949,2.0948,2.0949,2.0949,2.0933,2.0933,2.096,2.0959,2.0959,2.0959,0,0,0,0,0,0,0,2.089,2.0891,2.0893,2.0905,2.0908,2.0917,2.0919,2.091,2.0932,2.0933,2.0936,2.0938,2.095,2.095,2.095,2.0934,2.096,2.0959,2.0959,2.0959,2.089,2.0889,0,0,0,0,0,0,2.0887,2.089,2.0892,2.0893,2.0903,2.0916,2.0919,2.0918,2.0933,2.0936,2.0936,2.0939,2.095,2.095,2.0951,2.0914,2.0959,2.0958,2.0958,2.0891,2.089,2.0888,0,0,0,0,0,0,2.0887,2.0887,2.0892,2.0893,2.0894,2.0915,2.0913,2.0917,2.0917,2.0935,2.0939,2.0932,2.0951,2.0951,2.0936,2.0915,2.0958,2.0958,2.0893,2.0891,2.0889,2.0843,0,0,0,0,0,0,2.0887,2.0887,2.0877,2.0892,2.0894,2.0878,2.0912,2.0917,2.0917,2.0921,2.0933,2.0936,2.0952,2.0936,2.0935,2.0915,2.0957,2.0895,2.0892,2.089,2.0846,2.0839,2.0833,0,0,0,0,0,2.0886,2.0863,2.0876,2.0876,2.0882,2.0876,2.0877,2.0897,2.0915,2.0904,2.0915,2.0936,2.0918,2.0934,2.0933,2.0913,2.0896,2.0893,2.089,2.0849,2.084,2.0833,0,0,0,0,0,0,2.0845,2.0866,2.088,2.0862,2.0867,2.0883,2.0871,2.0888,2.0888,2.0892,2.0915,2.0918,2.0898,2.0904,2.0922,2.0883,2.091,2.0907,2.088,2.0872,2.0865,2.0863,2.0957,0,0,0,0,0,2.0833,2.0828,2.0847,2.0828,2.083,2.085,2.0848,2.0863,2.0869,2.0871,2.0881,2.0886,2.0881,2.0877,2.0874,2.0848,2.0849,2.0833,2.0827,2.0821,2.0817,2.08,2.0792,2.0877,2.0877,2.0877,0,0,2.081,2.0821,2.0816,2.082,2.0826,2.0818,2.0851,2.0843,2.0836,2.087,2.0855,2.0862,2.0868,2.0846,2.0837,2.0851,2.0794,2.0817,2.0813,2.0811,2.0796,2.0787,2.078,2.0875,2.0875,2.0876,0,0,2.0762,2.0771,2.0755,2.076,2.0769,2.0781,2.0777,2.0791,2.0797,2.0783,2.0806,2.0799,2.0791,2.0793,2.0794,2.0744,2.0761,2.0743,2.0708,2.0691,2.0684,2.0678,2.0657,2.065,2.0739,2.0739,2.0739,0,2.0731,2.0722,2.0745,2.0733,2.0733,2.0764,2.0746,2.0749,2.0756,2.0754,2.077,2.0759,2.0765,2.0742,2.073,2.073,2.0724,2.074,2.0684,2.0678,2.0673,2.0653,2.0645,2.0736,2.0736,2.0737,2.0737,0,2.0682,2.0674,2.066,2.0665,2.0664,2.065,2.0669,2.0664,2.0678,2.0689,2.0672,2.0681,2.0678,2.0675,2.0689,2.0653,2.066,2.068,2.0707,2.0662,2.0643,2.0636,2.0732,2.0733,2.0734,2.0735,0,0,2.0608,2.0625,2.0619,2.062,2.0631,2.0625,2.0611,2.0609,2.0602,2.0606,2.0592,2.0584,2.0601,2.0601,2.0616,2.0602,2.0557,2.0622,2.0623,2.0607,2.0514,2.0496,2.0487,2.057,2.0569,2.0568,2.0512,0,2.056,2.0538,2.0557,2.053,2.0522,2.0549,2.0537,2.054,2.055,2.0542,2.0553,2.0545,2.057,2.0569,2.0557,2.0566,2.0538,2.057,2.0555,2.0554,2.0549,2.0478,2.0461,2.0408,2.0505,2.0504,2.0503,0,2.0502,2.0502,2.0473,2.0483,2.048,2.0469,2.0466,2.046,2.0464,2.0472,2.047,2.0488,2.0473,2.0501,2.0478,2.05,2.0495,2.0498,2.0496,2.0493,2.0524,2.047,2.0392,2.0382,2.0493,2.0494,2.0494,0,2.0446,2.0439,2.0421,2.0421,2.0433,2.0423,2.0428,2.0433,2.0429,2.0428,2.0425,2.0421,2.0418,2.0414,2.0429,2.0449,2.0403,2.0434,2.0406,2.0405,2.0393,2.0393,2.0309,2.0395,2.0395,2.0395,2.0396,0,2.039,2.037,2.0395,2.0383,2.0362,2.0384,2.0361,2.0368,2.0372,2.0361,2.0386,2.0374,2.0396,2.0386,2.0399,2.0375,2.0375,2.0378,2.0381,2.0374,2.0373,2.0369,2.0372,2.0393,2.0394,2.0394,2.0395,0,2.0323,2.0339,2.032,2.0332,2.0335,2.0318,2.0327,2.0316,2.0326,2.0311,2.0309,2.0324,2.0314,2.0329,2.0321,2.0328,2.0296,2.0306,2.0294,2.0296,2.0266,2.0267,2.0174,2.0161,2.0258,2.0257,2.0257,0,2.0284,2.027,2.028,2.0274,2.0276,2.0267,2.0263,2.0284,2.0278,2.028,2.0267,2.0259,2.0253,2.0234,2.0243,2.0236,2.0244,2.0212,2.0243,2.0235,2.0239,2.0238,2.0235,2.0204,2.0203,2.0202,2.0202,0,2.0212,2.022,2.0214,2.0209,2.0204,2.0202,2.0201,2.0195,2.0216,2.0208,2.0198,2.0193,2.0183,2.0173,2.0167,2.017,2.0187,2.0192,2.0185,2.0176,2.0168,2.0168,2.0273,2.0193,2.0194,2.0195,2.0195,2.0196,2.0155,2.0142,2.0147,2.0138,2.014,2.0138,2.0126,2.0135,2.0127,2.012,2.0133,2.0118,2.012,2.0114,2.0115,2.0102,2.0116,2.0106,2.0103,2.0099,2.0092,2.0172,2.0102,2.0102,2.0102,2.0102,2.0103,0,2.0081,2.0085,2.0077,2.0074,2.0067,2.0086,2.0086,2.0077,2.0064,2.0065,2.0058,2.0043,2.0033,2.0042,2.0033,2.0021,2.0028,2.0017,2.0016,2.0016,2.0083,2.0088,2.0011,2.0011,2.0011,2.0011,2.0011,2.0011,2.0041,2.0019,2.0027,2.0005,2.0009,1.9995,1.9992,1.999,1.999,1.9973,1.9965,1.9971,1.9973,1.9964,1.9955,1.9957,1.9951,1.9936,1.9941,2.0003,2.0012,2.002,2.0025,1.9936,1.9935,1.9875,1.9874,1.9874]}]]